STARLINK-11225, 60912

Orbit data source: Space-Track

STARLINK-11225, 60912 is a payload satellite owned by SpaceX/Seattle (US) in LEO that was launched on Sat, 31 Aug 2024 UTC via an FALCON 9 launch vehicle from the Air Force Eastern Test Range (AFETR). Payload-class satellites include a variety of spacecraft equipped with specific instruments for various scientific and technological missions. These include communications satellites like Starlink; space stations such as the ISS; scientific satellites like the Hubble; Earth observation satellites from companies like Planet Labs, Umbra, and HawkEye 360; GPS; miniature CubeSats for education and research; and military/defense satellites.

Loading next visibility...
Identifier
60912, 2024-154K
Orbit
LEO
Country
Flag of USUS
Related business
Manufacturer
SpaceX/Seattle
Mission
Operational Commercial Communications
Bus & Motor
STARLINK V2MD, Unknown motor
Mass
960 kg wet, ~910 kg dry
Launch date (UTC)
2024-08-31 (2 years ago)
Launch vehicle
FALCON 9
Launch site
Air Force Eastern Test Range (AFETR)
Object type
Payload
Rocket body
Debris
Shape & HBR
Box + 2 Pan, 18.1 m
Radar Cross Section
36.964 m², Large (>1 m²)

Expand to show TLE details & history
Last TLE update: 1 day ago

TLE from 1 day ago
0 STARLINK-11225
1 60912U 24154K   26129.42283248 -.00000358  00000-0  19063-5 0  9998
2 60912  53.1601 191.8363 0001121  95.7827 264.3319 15.69701820 98048
Epoch: 2026-05-09T10:08Z
TLE epoch observation values (Epoch: 2026-05-09T10:08:52.726Z)
Latitude
0.00001°
Longitude
172.37613°
Altitude
360.74 km
Speed
7.694 km/s
True Right ascension
12h 47m 20s
True Declination
0° 00' 00"
Sunlit
Object was in full shadow at epoch
Visualization orbit readout
Latitude
Unknown
Longitude
Unknown
Altitude
Unknown
Speed
Unknown
Apparent Right ascension
Unknown
Apparent Declination
Unknown
Sunlit
N/A
Visualization observer readout
Local Sidereal Time
20:39:17
Azimuth
Unknown
Elevation
Unknown
Doppler factor
Unknown
Orbital elements
Apogee altitude
360.766 km
Perigee altitude
359.255 km
Semi-major axis
6,738.148 km
Eccentricity
0.00011
Inclination
53.1601°
RAAN
191.8363°
Arg. of periapsis
95.7827°
True anomaly
264.31912°
Mean anomaly
264.3319°
Eccentric anomaly
264.32551°
Mean motion
3.92403 °/min
Orbital period
91.74 mins
BSTAR
0.0000019063
Loading maneuver chart data...
Computing Atmospheric mass density...
Loading historical data...
Loading historical data...
Loading historical data...
Loading historical data...
Loading historical data...
Loading historical data...
Loading historical data...

Documentation

Showing up to 5 results
|